sat.trackr.live / text

‹ back to catalog

STARLINK-6232

NORAD 57085 · 2023-088AP

PAYLOAD ACTIVE UNKNOWN

§ Identity

Operator
Country
US
Launch date
2023-06-22
Launch site
AFWTR
Launch vehicle
Mass (kg)
RCS (m²)

Purposes: comms

External: N2YO · Heavens-Above · Gunter

§ Orbital elements

Epoch: 2026-05-24T22:06:53.775072Z

Period
94.27 min
Inclination
43.0060°
Eccentricity
0.0001407
Mean motion
15.27566833 rev/d
Perigee alt
482.1 km
Apogee alt
484.1 km
Semi-major
6,861.2 km
B*
-5.6410e-5
RAAN
25.2148°
Arg perigee
269.3688°
Mean anomaly
90.7003°
Rev number
16,216

§ Raw data

STARLINK-62321 57085U 23088AP  26144.92145573 -.00001813  00000+0 -56410-4 0  99932 57085  43.0060  25.2148 0001407 269.3688  90.7003 15.27566833162167

JSON: /api/v1/satellites/57085 · /tle

For live sub-satellite position, see the globe view (requires WebGL).

§ Visibility from observer

Set your observer location to see the next 7 days of passes ≥ 10°. The values pass through the URL so the page stays shareable.

No JS? Fill the form by hand. The geolocation button needs JavaScript.